Tracking 30918 objects as of 2-Jul-2025
HD Live streaming from Space Station
objects crossing your sky now

SBS 3

Track SBS 3 now!
SBS 3 is classified as:


NORAD ID: 13651
Int'l Code: 1982-110B
Perigee: 35,851.3 km
Apogee: 35,922.0 km
Inclination: 12.9 °
Period: 1,440.8 minutes
Semi major axis: 42257 km
RCS: 15.8489 m2 (large)
Launch date: November 11, 1982
Source: United States (US)
Launch site: AIR FORCE EASTERN TEST RANGE (AFETR)
Your satellite tracking list
Your tracking list is empty




NASA's NSSDC Master Catalog

Two Line Element Set (TLE):
1 13651U 82110B   25182.74154515 -.00000204  00000-0  00000-0 0  9995
2 13651  12.8741 336.8221 0008371 123.9589 245.6518  0.99941265 43049
Source of the keplerian elements: AFSPC